KAITUO 1B
1 40912U 15049P   18048.94977942 +.00000987 +00000-0 +51088-4 0  9997
2 40912 097.4507 057.9821 0017400 068.5553 349.6316 15.18445786133576
TIANWANG 1C (TW-1C)
1 40926U 15051B   18049.53093235  .00006852  00000-0  13695-3 0  9993
2 40926  97.1990  92.4876 0010312   3.6724 102.9711 15.47070380134951
TIANWANG 1B (TW-1B)
1 40927U 15051C   18049.38523656  .00006733  00000-0  14013-3 0  9995
2 40927  97.2088  92.2410 0010809  14.6814  40.7146 15.45885628134853
TIANWANG 1A (TW-1A)
1 40928U 15051D   18048.84828382  .00002661  00000-0  73211-4 0  9992
2 40928  97.2001  85.1558 0013627  39.5118  65.6293 15.37969257134432
LAPAN A2
1 40931U 15052B   18048.03114277 +.00000662 +00000-0 +31536-5 0  9993
2 40931 005.9989 286.9102 0012960 106.5923 253.5663 14.76564696129210
LQSAT
1 40958U 15057A   18049.22262637  .00000039  00000-0  13883-4 0  9995
2 40958  97.9528 124.9166 0018396   3.5040 356.6311 14.73016068127333
CHUBUSAT 2
1 41338U 16012B   18049.19534002  .00000400  00000-0  24629-4 0  9996
2 41338  31.0045 349.6259 0013815 334.5513  25.4441 14.99920607109955
CHUBUSAT 3
1 41339U 16012C   18049.22412489  .00000321  00000-0  18304-4 0  9990
2 41339  31.0115 348.2086 0013575 341.8937  18.1217 15.00111891109940
OUFTI-1
1 41458U 16025C   18049.18585497  .00000619  00000-0  36849-4 0  9995
2 41458  98.1504 105.6147 0171177 186.0675 173.8509 15.04240754 99544
E-STAR-2
1 41459U 16025D   18048.70698376 +.00001638 +00000-0 +90097-4 0  9991
2 41459 098.1497 104.9919 0171868 188.4801 171.3512 15.04005166099463
AAUSAT 4
1 41460U 16025E   18048.85982087 +.00001092 +00000-0 +61054-4 0  9999
2 41460 098.1463 105.4835 0164022 184.4716 175.5056 15.05286586099531
NUSAT 1
1 41557U 16033B   18049.18992256  .00001572  00000-0  60197-4 0  9991
2 41557  97.4434 133.6083 0013036 212.6668 147.3766 15.27999053 95988
BEESAT 4
1 41619U 16040W   18048.80267830 +.00001573 +00000-0 +72427-4 0  9999
2 41619 097.4308 113.5339 0010165 291.6007 068.4146 15.21748267079937
PRATHAM
1 41783U 16059A   18048.78370680 +.00000067 +00000-0 +22420-4 0  9991
2 41783 098.1341 112.1785 0034896 109.9964 250.5000 14.62900745074500
ALSAT 1N
1 41789U 16059G   18049.11462818  .00000074  00000-0  23250-4 0  9990
2 41789  98.1346 113.4880 0029868 101.4763 258.9806 14.64127290 74591
NAYIF 1
1 42017U 17008BX  18048.87898455 +.00001707 +00000-0 +73310-4 0  9998
2 42017 097.4635 114.5846 0008125 082.5564 277.6596 15.24040430055897
LILACSAT-1
1 42725U 98067ME  18049.08064836  .00021450  00000-0  22855-3 0  9994
2 42725  51.6358 243.0839 0005460 147.8887 212.2441 15.63907422 41850
MAX VALIER SAT
1 42778U 17036P   18048.78854006  .00001066  00000-0  51045-4 0  9996
2 42778  97.4198 110.4022 0014189 124.6705 235.5871 15.21037335 36354
